EW4927 Weather Reports


time (UTC)temp
C
wind
direction
speed
KPH
gust
KPH
rain 1hr
cm
rain 24hr
cm
rain mn
cm
humidity
%
barometer
mb
20260507214541 6 0 0.0 0.0 0.00 0.00 0.00 93 1015.0
20260507213540 6 0 0.0 0.0 0.00 0.00 0.00 93 1014.9
20260507212540 6 0 0.0 0.0 0.00 0.00 0.00 92 1014.9
20260507211540 6 0 0.0 0.0 0.00 0.00 0.00 92 1014.9
20260507210538 6 0 0.0 0.0 0.00 0.00 0.00 92 1014.9
20260507205640 6 0 0.0 0.0 0.00 0.00 0.00 91 1014.8
20260507204637 6 0 0.0 0.0 0.00 0.00 0.00 91 1014.8
20260507203637 6 0 0.0 0.0 0.00 0.00 0.00 89 1014.7
20260507202636 7 0 0.0 0.0 0.00 0.00 0.00 88 1014.6
20260507201636 7 0 0.0 0.0 0.00 0.00 0.00 88 1014.4
20260507200636 8 0 0.0 0.0 0.00 0.00 0.00 87 1014.2
20260507195635 8 0 0.0 0.0 0.00 0.00 0.00 86 1014.2
20260507194634 8 0 0.0 0.0 0.00 0.00 0.00 84 1014.1
20260507193633 9 0 0.0 0.0 0.00 0.00 0.00 80 1014.1
20260507192632 10 0 0.0 0.0 0.00 0.00 0.00 78 1014.0
20260507191632 10 0 0.0 0.0 0.00 0.00 0.00 78 1014.0
20260507185631 11 0 0.0 0.0 0.00 0.00 0.00 75 1013.9
20260507184632 11 0 0.0 0.0 0.00 0.00 0.00 74 1013.9
20260507183630 11 0 0.0 0.0 0.00 0.00 0.00 65 1013.9
20260507182629 12 0 0.0 0.0 0.00 0.00 0.00 62 1013.8
20260507181627 12 0 0.0 0.0 0.00 0.00 0.00 61 1013.8
20260507180629 12 0 0.0 0.0 0.00 0.00 0.00 61 1013.8
20260507174626 13 0 0.0 0.0 0.00 0.00 0.00 59 1013.8
20260507173626 13 0 0.0 0.0 0.00 0.00 0.00 58 1013.8
20260507171625 14 0 0.0 0.0 0.00 0.00 0.00 59 1013.6
20260507170624 15 0 0.0 0.0 0.00 0.00 0.00 55 1013.6
20260507164622 15 0 0.0 0.0 0.00 0.00 0.00 54 1013.6
20260507163621 15 0 0.0 0.0 0.00 0.00 0.00 52 1013.5
20260507161620 15 0 0.0 0.0 0.00 0.00 0.00 53 1013.5
20260507160621 15 0 0.0 0.0 0.00 0.00 0.00 58 1013.5
20260507155622 14 0 0.0 0.0 0.00 0.00 0.00 59 1013.6
20260507154620 15 0 0.0 0.0 0.00 0.00 0.00 60 1013.5
20260507153621 15 0 0.0 0.0 0.00 0.00 0.00 58 1013.6
20260507152618 16 0 0.0 0.0 0.00 0.00 0.00 58 1013.8
20260507150617 15 0 0.0 0.0 0.00 0.00 0.00 63 1013.7
20260507145616 15 0 0.0 0.0 0.00 0.00 0.00 61 1013.7
20260507143617 15 0 0.0 0.0 0.00 0.00 0.00 63 1013.8
20260507142614 15 0 0.0 0.0 0.00 0.00 0.00 61 1013.9
20260507141614 15 0 0.0 0.0 0.00 0.00 0.00 64 1014.0
20260507140615 15 0 0.0 0.0 0.00 0.00 0.00 69 1014.1
20260507135614 13 0 0.0 0.0 0.00 0.00 0.00 73 1014.1
20260507133611 13 0 0.0 0.0 0.00 0.00 0.00 72 1014.4
20260507132612 13 0 0.0 0.0 0.00 0.00 0.00 71 1014.3
20260507131610 13 0 0.0 0.0 0.00 0.00 0.00 71 1014.2
20260507130611 13 0 0.0 0.0 0.00 0.00 0.00 72 1014.2
20260507125611 13 0 0.0 0.0 0.00 0.00 0.00 68 1014.3
20260507124608 14 0 0.0 0.0 0.00 0.00 0.00 63 1014.2
20260507123608 15 0 0.0 0.0 0.00 0.00 0.00 62 1014.0
20260507122607 15 0 0.0 0.0 0.00 0.00 0.00 62 1014.0
20260507115606 14 0 0.0 0.0 0.00 0.00 0.00 64 1014.0
20260507114605 15 0 0.0 0.0 0.00 0.00 0.00 63 1014.0
20260507113604 15 0 0.0 0.0 0.00 0.00 0.00 64 1014.0
20260507112604 14 0 0.0 0.0 0.00 0.00 0.00 67 1013.9
20260507111603 13 0 0.0 0.0 0.00 0.00 0.00 70 1013.9
20260507110608 13 0 0.0 0.0 0.00 0.00 0.00 67 1014.0
20260507105602 13 0 0.0 0.0 0.00 0.00 0.00 65 1014.1
20260507104603 14 0 0.0 0.0 0.00 0.00 0.00 66 1014.0
20260507103601 15 0 0.0 0.0 0.00 0.00 0.00 61 1014.1
20260507102602 16 0 0.0 0.0 0.00 0.00 0.00 60 1014.0
20260507101559 15 0 0.0 0.0 0.00 0.00 0.00 63 1014.1
20260507100559 15 0 0.0 0.0 0.00 0.00 0.00 66 1014.1
20260507095558 14 0 0.0 0.0 0.00 0.00 0.00 65 1014.1
20260507093557 14 0 0.0 0.0 0.00 0.00 0.00 67 1014.2
20260507092557 14 0 0.0 0.0 0.00 0.00 0.00 70 1014.2
20260507091558 13 0 0.0 0.0 0.00 0.00 0.00 70 1014.2
20260507090557 13 0 0.0 0.0 0.00 0.00 0.00 70 1014.2
20260507085556 13 0 0.0 0.0 0.00 0.00 0.00 69 1014.1
20260507084554 12 0 0.0 0.0 0.00 0.00 0.00 73 1014.2
20260507083555 12 0 0.0 0.0 0.00 0.00 0.00 75 1014.2
20260507082553 11 0 0.0 0.0 0.00 0.00 0.00 74 1014.3
20260507081552 11 0 0.0 0.0 0.00 0.00 0.00 77 1014.3
20260507080552 11 0 0.0 0.0 0.00 0.00 0.00 78 1014.3
20260507075552 10 0 0.0 0.0 0.00 0.00 0.00 77 1014.3
20260507074550 10 0 0.0 0.0 0.00 0.00 0.00 80 1014.2
20260507073551 10 0 0.0 0.0 0.00 0.00 0.00 80 1014.2
20260507071549 9 0 0.0 0.0 0.00 0.00 0.00 83 1014.2
20260507070548 8 0 0.0 0.0 0.00 0.00 0.00 85 1014.1
20260507064548 8 0 0.0 0.0 0.00 0.00 0.00 86 1014.0
20260507063548 8 0 0.0 0.0 0.00 0.00 0.00 86 1014.0
20260507062549 8 0 0.0 0.0 0.00 0.00 0.00 86 1013.9
20260507061547 7 0 0.0 0.0 0.00 0.00 0.00 86 1013.9
20260507060545 7 0 0.0 0.0 0.00 0.00 0.00 86 1013.8
20260507055544 7 0 0.0 0.0 0.00 0.00 0.00 85 1013.8
20260507054543 7 0 0.0 0.0 0.00 0.00 0.00 85 1013.9
20260507053543 7 0 0.0 0.0 0.00 0.00 0.00 84 1013.8
20260507052543 7 0 0.0 0.0 0.00 0.00 0.00 83 1013.8
20260507051543 7 0 0.0 0.0 0.00 0.00 0.00 83 1013.8
20260507050543 7 0 0.0 0.0 0.00 0.00 0.00 84 1013.8
20260507045540 7 0 0.0 0.0 0.00 0.00 0.00 85 1013.8
20260507044541 7 0 0.0 0.0 0.00 0.00 0.00 84 1013.7
20260507043542 7 0 0.0 0.0 0.00 0.00 0.00 84 1013.7
20260507041541 8 0 0.0 0.0 0.00 0.00 0.00 84 1013.7
20260507040539 7 0 0.0 0.0 0.00 0.00 0.00 85 1013.7